SCP
0 0 0 0 0 0 0 0 0 0 0 0 0 0 0 0 0 0 0 0 0 0 0 0 0 0 0 0 0 0 0 0
0 0 0 0 0 0 0 0 0 0 0 0 0 0 0 0 0 0 0 0 0 0 0 0 0 0 0 0 0 0 0 0
0 0 0 0 0 0 0 0 0 0 0 0 0 0 0 0 0 0 0 0 0 0 0 0 0 0 0 0 0 0 0 0
0 0 0 0 0 0 0 0 0 0 0 0 0 0 0 0 0 0 0 0 0 0 0 0 0 0 0 0 0 0 0 0
0 0 0 0 0 0 0 0 0 0 0 0 0 0 0 0 0 0 0 0 0 0 0 0 0 0 0 0 0 0 0 0
0 0 0 0 0 0 0 0 0 0 0 0 0 0 0 0 0 0 0 0 0 0 0 0 0 0 0 0 0 0 0 0
0 0 0 0 0 0 0 0 0 0 0 0 0 0 0 0 0 0 0 0 0 0 0 0 0 0 0 0 -0 0 -0 -0
0 0 0 0 0 0 0 0 0 0 0 0 0 0 0 0 0 0 0 0 0 0 0 0 0 0 0 0 0 0 0 0
0 0 0 0 0 0 0 0 0 0 0 0 0 0 0 0 0 0 0 0 0 0 0 0 0 0 0 0 0 0 0 0
0 0 0 0 0 0 0 0 0 0 0 0 0 0 0 0 0 0 0 0 0 0 0 0 0 0 0 0 0 0 0 0
0 0 0 0 0 0 0 0 0 0 0 0 0 0 0 0 0 0 0 0 0 0 0 0 0 0 0 0 0 0 0 0
0 0 0 0 0 0 0 0 0 0 0 0 0 0 0 0 0 0 0 0 0 0 0 0 0 0 0 0 0 0 0 0
0 0 0 0 0 0 0 0 0 0 0 0 0 0 0 0 0 0 0 0 0 0 0 0 0 0 0 0 0 0 0 0
0 0 0 0 0 0 0 0 0 0 0 0 0 0 0 0 0 0 0 0 0 0 0 0 0 0 0 0 0 0 0 0
0 0 0 0 0 0 0 0 0 0 0 0 0 0 0 0 0 0 0 0 0 0 0 0 0 0 0 0 0 0 0 0
0 0 0 0 0 0 0 0 0 0 0 0 0 0 0 0 0 0 0 0 0 0 0 0 0 0 0 0 0 0 0 0
0 0 0 0 0 0 0 0 0 0 0 0 0 0 0 0 0 0 0 0 0 0 0 0 0 0 0 0 0 0 0 0
0 0 0 0 0 0 0 0 0 0 0 0 0 0 0 0 0 0 0 0 0 0 0 0 0 0 0 0 0 0 0 0
0 0 0 0 0 0 0 0 0 0 0 0 0 0 0 0 0 0 0 0 0 0 0 0 0 0 0 0 0 0 0 0
0 0 0 0 0 0 0 0 0 0 0 0 0 0 0 0 0 0 0 0 0 0 0 0 0 0 0 0 0 0 0 0
Wind_Speed_500mb
15 15 16 16 15 16 16 16 19 18 19 18 16 14 13 11 8 5 3 3 6 9 14 18 20 24 27 28 30 33 36 37
22 22 21 19 18 17 17 15 15 14 13 11 9 5 2 1 3 4 5 8 11 12 14 17 21 23 28 32 36 40 43 44
29 27 26 24 21 17 15 13 9 7 5 2 1 1 3 4 8 9 11 12 14 16 18 22 26 29 34 37 41 45 50 53
34 32 27 30 26 24 20 18 15 9 5 3 5 7 7 6 6 8 11 13 15 16 17 20 25 29 34 40 44 47 48 51
36 36 36 33 30 26 21 15 10 7 6 6 6 7 8 7 6 9 11 11 12 15 19 22 28 32 37 41 45 48 50 52
48 45 39 39 36 28 24 19 16 14 13 12 12 10 9 9 3 3 5 8 14 18 23 27 30 39 46 50 54 58 59 61
52 51 48 43 38 31 25 23 21 16 14 14 14 10 8 5 2 3 8 13 16 21 25 30 35 43 50 54 55 56 59 62
62 58 56 50 41 34 26 21 22 17 16 16 14 11 8 2 2 5 11 16 20 23 27 31 35 42 47 50 50 51 52 55
71 65 62 55 44 37 30 27 24 22 22 18 16 11 7 2 3 8 12 15 19 23 26 30 34 39 43 47 49 51 53 57
81 78 67 54 45 39 33 28 26 26 24 18 16 13 8 4 2 7 11 15 19 23 25 28 32 38 44 50 54 55 54 54
87 74 63 56 48 39 39 36 32 28 23 22 18 14 7 3 4 7 11 15 18 21 26 30 34 38 44 52 58 61 64 61
71 68 63 54 45 38 33 36 34 30 27 21 17 11 7 5 8 10 13 15 19 24 29 32 38 40 45 49 52 56 62 64
68 64 58 52 46 41 38 36 33 30 24 19 13 10 9 8 8 12 16 19 23 25 27 30 34 40 44 50 51 52 59 63
63 59 54 49 44 41 41 33 32 28 22 18 15 12 9 8 10 13 15 20 23 27 31 34 37 41 46 52 53 54 56 58
59 54 48 43 44 41 36 37 33 28 23 18 13 10 9 10 12 16 18 21 24 28 32 35 38 41 47 53 56 58 61 64
56 51 48 47 40 39 37 35 31 25 20 16 13 12 12 12 13 16 19 21 24 28 31 35 37 38 41 47 52 57 61 67
53 52 47 41 41 38 35 30 26 23 20 17 14 12 11 12 14 15 17 20 22 26 29 32 36 40 43 49 52 53 61 66
51 46 43 42 38 33 29 26 22 20 18 15 13 13 13 13 15 15 15 17 21 25 29 33 38 41 47 51 54 54 60 63
44 41 39 37 33 29 25 22 19 17 16 14 14 14 14 16 18 20 23 23 24 27 32 34 37 40 45 50 54 56 56 60
41 39 36 33 29 24 20 18 17 16 16 15 15 16 17 18 21 23 26 29 32 33 33 39 39 41 43 48 54 58 60 63
Wind_Direction_500mb
175 184 186 176 164 154 144 136 126 124 125 121 119 116 113 111 110 99 61 342 318 309 309 306 305 302 295 293 294 297 300 299
186 191 188 177 167 160 155 148 141 136 127 121 115 111 89 350 345 325 323 313 306 305 303 300 301 307 308 309 309 312 311 311
191 189 186 184 180 171 166 164 154 138 146 165 169 294 302 314 313 318 318 323 324 320 320 320 322 318 318 319 320 320 319 319
192 191 192 192 192 189 189 186 186 189 197 243 282 294 298 308 316 312 319 324 324 329 329 335 330 330 330 335 335 334 333 333
195 196 202 201 201 202 199 201 200 211 239 273 292 293 290 297 329 329 325 336 348 349 354 350 343 343 339 344 347 349 348 347
200 199 204 206 206 208 217 225 232 236 241 251 262 253 252 265 293 319 359 1 11 6 360 356 352 351 352 355 354 352 351 351
202 202 204 208 212 219 223 223 221 233 255 257 248 240 243 245 286 343 15 18 19 12 6 3 359 357 358 357 355 350 347 346
204 204 206 210 213 215 222 236 243 239 243 245 241 240 248 271 353 27 25 21 19 14 9 2 358 355 353 349 346 343 342 340
206 206 208 209 210 213 217 227 236 237 241 233 230 230 223 241 358 20 22 13 13 9 5 360 354 349 344 338 338 338 342 343
208 209 208 206 208 214 221 227 233 234 231 226 226 223 216 217 321 15 9 2 360 356 354 350 346 343 339 336 336 335 337 340
210 207 206 207 214 217 223 225 235 231 225 223 217 218 226 250 330 355 349 347 348 346 344 342 341 339 338 337 339 339 340 343
207 205 207 208 210 213 214 217 223 222 217 215 213 218 240 290 325 330 333 334 338 343 341 338 338 339 338 337 342 342 340 342
201 203 205 206 208 212 218 221 219 215 210 210 214 230 249 275 311 328 335 334 331 329 329 332 333 335 338 342 345 343 340 340
200 199 200 203 206 208 212 213 213 212 207 207 215 230 256 292 308 306 310 314 318 324 329 332 334 336 331 333 338 339 338 337
199 199 200 199 201 204 210 210 208 206 206 209 218 234 256 274 286 297 309 316 323 328 330 331 331 332 332 334 335 335 334 334
201 199 197 196 201 203 200 202 202 203 208 212 219 231 246 267 287 303 312 319 325 325 325 327 328 332 332 332 333 333 331 331
194 195 194 198 198 195 196 198 201 206 212 216 226 242 261 278 293 307 313 316 318 320 320 319 321 322 322 325 327 330 329 332
194 194 195 192 192 193 195 201 206 215 222 229 240 253 266 281 291 295 300 305 310 313 314 317 320 320 321 323 325 330 329 330
191 191 190 190 192 195 199 206 214 224 234 245 256 265 275 283 290 297 302 306 311 315 316 318 321 322 321 322 325 326 329 330
185 188 189 191 196 201 209 218 230 240 249 257 263 271 279 287 295 301 307 312 316 317 316 317 322 324 324 326 328 330 331 329
Wind_Speed_850mb
15 15 16 16 15 16 16 16 19 18 19 18 16 14 13 11 8 5 3 3 6 9 14 18 20 24 27 28 30 33 36 37
22 22 21 19 18 17 17 15 15 14 13 11 9 5 2 1 3 4 5 8 11 12 14 17 21 23 28 32 36 40 43 44
29 27 26 24 21 17 15 13 9 7 5 2 1 1 3 4 8 9 11 12 14 16 18 22 26 29 34 37 41 45 50 53
34 32 27 30 26 24 20 18 15 9 5 3 5 7 7 6 6 8 11 13 15 16 17 20 25 29 34 40 44 47 48 51
36 36 36 33 30 26 21 15 10 7 6 6 6 7 8 7 6 9 11 11 12 15 19 22 28 32 37 41 45 48 50 52
48 45 39 39 36 28 24 19 16 14 13 12 12 10 9 9 3 3 5 8 14 18 23 27 30 39 46 50 54 58 59 61
52 51 48 43 38 31 25 23 21 16 14 14 14 10 8 5 2 3 8 13 16 21 25 30 35 43 50 54 55 56 59 62
62 58 56 50 41 34 26 21 22 17 16 16 14 11 8 2 2 5 11 16 20 23 27 31 35 42 47 50 50 51 52 55
71 65 62 55 44 37 30 27 24 22 22 18 16 11 7 2 3 8 12 15 19 23 26 30 34 39 43 47 49 51 53 57
81 78 67 54 45 39 33 28 26 26 24 18 16 13 8 4 2 7 11 15 19 23 25 28 32 38 44 50 54 55 54 54
87 74 63 56 48 39 39 36 32 28 23 22 18 14 7 3 4 7 11 15 18 21 26 30 34 38 44 52 58 61 64 61
71 68 63 54 45 38 33 36 34 30 27 21 17 11 7 5 8 10 13 15 19 24 29 32 38 40 45 49 52 56 62 64
68 64 58 52 46 41 38 36 33 30 24 19 13 10 9 8 8 12 16 19 23 25 27 30 34 40 44 50 51 52 59 63
63 59 54 49 44 41 41 33 32 28 22 18 15 12 9 8 10 13 15 20 23 27 31 34 37 41 46 52 53 54 56 58
59 54 48 43 44 41 36 37 33 28 23 18 13 10 9 10 12 16 18 21 24 28 32 35 38 41 47 53 56 58 61 64
56 51 48 47 40 39 37 35 31 25 20 16 13 12 12 12 13 16 19 21 24 28 31 35 37 38 41 47 52 57 61 67
53 52 47 41 41 38 35 30 26 23 20 17 14 12 11 12 14 15 17 20 22 26 29 32 36 40 43 49 52 53 61 66
51 46 43 42 38 33 29 26 22 20 18 15 13 13 13 13 15 15 15 17 21 25 29 33 38 41 47 51 54 54 60 63
44 41 39 37 33 29 25 22 19 17 16 14 14 14 14 16 18 20 23 23 24 27 32 34 37 40 45 50 54 56 56 60
41 39 36 33 29 24 20 18 17 16 16 15 15 16 17 18 21 23 26 29 32 33 33 39 39 41 43 48 54 58 60 63
Wind_Direction_850mb
175 184 186 176 164 154 144 136 126 124 125 121 119 116 113 111 110 99 61 342 318 309 309 306 305 302 295 293 294 297 300 299
186 191 188 177 167 160 155 148 141 136 127 121 115 111 89 350 345 325 323 313 306 305 303 300 301 307 308 309 309 312 311 311
191 189 186 184 180 171 166 164 154 138 146 165 169 294 302 314 313 318 318 323 324 320 320 320 322 318 318 319 320 320 319 319
192 191 192 192 192 189 189 186 186 189 197 243 282 294 298 308 316 312 319 324 324 329 329 335 330 330 330 335 335 334 333 333
195 196 202 201 201 202 199 201 200 211 239 273 292 293 290 297 329 329 325 336 348 349 354 350 343 343 339 344 347 349 348 347
200 199 204 206 206 208 217 225 232 236 241 251 262 253 252 265 293 319 359 1 11 6 360 356 352 351 352 355 354 352 351 351
202 202 204 208 212 219 223 223 221 233 255 257 248 240 243 245 286 343 15 18 19 12 6 3 359 357 358 357 355 350 347 346
204 204 206 210 213 215 222 236 243 239 243 245 241 240 248 271 353 27 25 21 19 14 9 2 358 355 353 349 346 343 342 340
206 206 208 209 210 213 217 227 236 237 241 233 230 230 223 241 358 20 22 13 13 9 5 360 354 349 344 338 338 338 342 343
208 209 208 206 208 214 221 227 233 234 231 226 226 223 216 217 321 15 9 2 360 356 354 350 346 343 339 336 336 335 337 340
210 207 206 207 214 217 223 225 235 231 225 223 217 218 226 250 330 355 349 347 348 346 344 342 341 339 338 337 339 339 340 343
207 205 207 208 210 213 214 217 223 222 217 215 213 218 240 290 325 330 333 334 338 343 341 338 338 339 338 337 342 342 340 342
201 203 205 206 208 212 218 221 219 215 210 210 214 230 249 275 311 328 335 334 331 329 329 332 333 335 338 342 345 343 340 340
200 199 200 203 206 208 212 213 213 212 207 207 215 230 256 292 308 306 310 314 318 324 329 332 334 336 331 333 338 339 338 337
199 199 200 199 201 204 210 210 208 206 206 209 218 234 256 274 286 297 309 316 323 328 330 331 331 332 332 334 335 335 334 334
201 199 197 196 201 203 200 202 202 203 208 212 219 231 246 267 287 303 312 319 325 325 325 327 328 332 332 332 333 333 331 331
194 195 194 198 198 195 196 198 201 206 212 216 226 242 261 278 293 307 313 316 318 320 320 319 321 322 322 325 327 330 329 332
194 194 195 192 192 193 195 201 206 215 222 229 240 253 266 281 291 295 300 305 310 313 314 317 320 320 321 323 325 330 329 330
191 191 190 190 192 195 199 206 214 224 234 245 256 265 275 283 290 297 302 306 311 315 316 318 321 322 321 322 325 326 329 330
185 188 189 191 196 201 209 218 230 240 249 257 263 271 279 287 295 301 307 312 316 317 316 317 322 324 324 326 328 330 331 329